User: anonymous   Login
Location: Cronhütte
(48.9135°N, 9.6869°E)
Time: 13:05:47
(UTC+00:00)
Language:

Cosmos 2333 - Orbit

View from above orbital plane
View from above orbital plane
View from above satellite
View from above satellite

Ground track
Ground track

The orbit data is extracted from the following two-line orbital elements,

1 24297U 96051A   24198.89323114 -.00000101  00000-0 -27605-4 0  9998
2 24297  70.9043   9.5772 0026048 282.7389  77.0820 14.13583580437329
Epoch (UTC): 16 July 2024 21:26:15
Eccentricity: 0.0026048
inclination: 70.9043°
perigee height: 828 km
apogee height: 866 km
right ascension of ascending node: 9.5772°
argument of perigee: 282.7389°
revolutions per day: 14.13583580
mean anomaly at epoch: 77.0820°
orbit number at epoch: 43732

The dashed part of the orbit path shows where the satellite is in the earth's shadow,  

DLR